Year,Month,Day,Hour,Minute,Value (Times are PST for temperature in C)
2009,01,23,00,00,-1.20
2009,01,23,00,01,-1.20
2009,01,23,00,02,-1.20
2009,01,23,00,03,-1.10
2009,01,23,00,04,-1.10
2009,01,23,00,05,-1.10
2009,01,23,00,06,-1.10
2009,01,23,00,07,-1.10
2009,01,23,00,08,-1.10
2009,01,23,00,09,-1.10
2009,01,23,00,10,-1.10
2009,01,23,00,11,-1.10
2009,01,23,00,12,-1.10
2009,01,23,00,13,-1.10
2009,01,23,00,14,-1.10
2009,01,23,00,15,-1.10
2009,01,23,00,16,-1.10
2009,01,23,00,17,-1.10
2009,01,23,00,18,-1.10
2009,01,23,00,19,-1.10
2009,01,23,00,20,-1.10
2009,01,23,00,21,-1.10
2009,01,23,00,22,-1.10
2009,01,23,00,23,-1.10
2009,01,23,00,24,-1.10
2009,01,23,00,25,-1.10
2009,01,23,00,26,-1.10
2009,01,23,00,27,-1.10
2009,01,23,00,28,-1.10
2009,01,23,00,29,-1.10
2009,01,23,00,30,-1.10
2009,01,23,00,31,-1.10
2009,01,23,00,32,-1.10
2009,01,23,00,33,-1.10
2009,01,23,00,34,-1.10
2009,01,23,00,35,-1.10
2009,01,23,00,36,-1.10
2009,01,23,00,37,-1.10
2009,01,23,00,38,-1.10
2009,01,23,00,39,-1.10
2009,01,23,00,40,-1.10
2009,01,23,00,41,-1.10
2009,01,23,00,42,-1.10
2009,01,23,00,43,-1.10
2009,01,23,00,44,-1.10
2009,01,23,00,45,-1.10
2009,01,23,00,46,-1.10
2009,01,23,00,47,-1.20
2009,01,23,00,48,-1.20
2009,01,23,00,49,-1.20
2009,01,23,00,50,-1.20
2009,01,23,00,51,-1.20
2009,01,23,00,52,-1.20
2009,01,23,00,53,-1.20
2009,01,23,00,54,-1.30
2009,01,23,00,55,-1.30
2009,01,23,00,56,-1.30
2009,01,23,00,57,-1.30
2009,01,23,00,58,-1.30
2009,01,23,00,59,-1.30
2009,01,23,01,00,-1.30
2009,01,23,01,01,-1.40
2009,01,23,01,02,-1.40
2009,01,23,01,03,-1.40
2009,01,23,01,04,-1.40
2009,01,23,01,05,-1.40
2009,01,23,01,06,-1.40
2009,01,23,01,07,-1.40
2009,01,23,01,08,-1.40
2009,01,23,01,09,-1.40
2009,01,23,01,10,-1.40
2009,01,23,01,11,-1.40
2009,01,23,01,12,-1.40
2009,01,23,01,13,-1.40
2009,01,23,01,14,-1.40
2009,01,23,01,15,-1.40
2009,01,23,01,16,-1.40
2009,01,23,01,17,-1.40
2009,01,23,01,18,-1.40
2009,01,23,01,19,-1.40
2009,01,23,01,20,-1.40
2009,01,23,01,21,-1.40
2009,01,23,01,22,-1.40
2009,01,23,01,23,-1.40
2009,01,23,01,24,-1.40
2009,01,23,01,25,-1.40
2009,01,23,01,26,-1.40
2009,01,23,01,27,-1.40
2009,01,23,01,28,-1.30
2009,01,23,01,29,-1.30
2009,01,23,01,30,-1.30
2009,01,23,01,31,-1.30
2009,01,23,01,32,-1.30
2009,01,23,01,33,-1.30
2009,01,23,01,34,-1.30
2009,01,23,01,35,-1.30
2009,01,23,01,36,-1.30
2009,01,23,01,37,-1.30
2009,01,23,01,38,-1.30
2009,01,23,01,39,-1.30
2009,01,23,01,40,-1.30
2009,01,23,01,41,-1.30
2009,01,23,01,42,-1.30
2009,01,23,01,43,-1.30
2009,01,23,01,44,-1.30
2009,01,23,01,45,-1.30
2009,01,23,01,46,-1.30
2009,01,23,01,47,-1.30
2009,01,23,01,48,-1.30
2009,01,23,01,49,-1.30
2009,01,23,01,50,-1.30
2009,01,23,01,51,-1.30
2009,01,23,01,52,-1.30
2009,01,23,01,53,-1.30
2009,01,23,01,54,-1.30
2009,01,23,01,55,-1.30
2009,01,23,01,56,-1.30
2009,01,23,01,57,-1.30
2009,01,23,01,58,-1.30
2009,01,23,01,59,-1.30
2009,01,23,02,00,-1.20
2009,01,23,02,01,-1.20
2009,01,23,02,02,-1.20
2009,01,23,02,03,-1.20
2009,01,23,02,04,-1.20
2009,01,23,02,05,-1.20
2009,01,23,02,06,-1.20
2009,01,23,02,07,-1.20
2009,01,23,02,08,-1.20
2009,01,23,02,09,-1.20
2009,01,23,02,10,-1.20
2009,01,23,02,11,-1.20
2009,01,23,02,12,-1.20
2009,01,23,02,13,-1.20
2009,01,23,02,14,-1.20
2009,01,23,02,15,-1.20
2009,01,23,02,16,-1.20
2009,01,23,02,17,-1.20
2009,01,23,02,18,-1.20
2009,01,23,02,19,-1.20
2009,01,23,02,20,-1.20
2009,01,23,02,21,-1.20
2009,01,23,02,22,-1.20
2009,01,23,02,23,-1.20
2009,01,23,02,24,-1.20
2009,01,23,02,25,-1.20
2009,01,23,02,26,-1.20
2009,01,23,02,27,-1.20
2009,01,23,02,28,-1.20
2009,01,23,02,29,-1.20
2009,01,23,02,30,-1.20
2009,01,23,02,31,-1.20
2009,01,23,02,32,-1.20
2009,01,23,02,33,-1.20
2009,01,23,02,34,-1.20
2009,01,23,02,35,-1.20
2009,01,23,02,36,-1.20
2009,01,23,02,37,-1.30
2009,01,23,02,38,-1.30
2009,01,23,02,39,-1.30
2009,01,23,02,40,-1.30
2009,01,23,02,41,-1.30
2009,01,23,02,42,-1.30
2009,01,23,02,43,-1.30
2009,01,23,02,44,-1.30
2009,01,23,02,45,-1.30
2009,01,23,02,46,-1.30
2009,01,23,02,47,-1.30
2009,01,23,02,48,-1.30
2009,01,23,02,49,-1.30
2009,01,23,02,50,-1.30
2009,01,23,02,51,-1.30
2009,01,23,02,52,-1.30
2009,01,23,02,53,-1.30
2009,01,23,02,54,-1.30
2009,01,23,02,55,-1.30
2009,01,23,02,56,-1.30
2009,01,23,02,57,-1.40
2009,01,23,02,58,-1.40
2009,01,23,02,59,-1.40
2009,01,23,03,00,-1.40
2009,01,23,03,01,-1.40
2009,01,23,03,02,-1.40
2009,01,23,03,03,-1.40
2009,01,23,03,04,-1.40
2009,01,23,03,05,-1.40
2009,01,23,03,06,-1.40
2009,01,23,03,07,-1.40
2009,01,23,03,08,-1.40
2009,01,23,03,09,-1.40
2009,01,23,03,10,-1.40
2009,01,23,03,11,-1.40
2009,01,23,03,12,-1.40
2009,01,23,03,13,-1.40
2009,01,23,03,14,-1.40
2009,01,23,03,15,-1.50
2009,01,23,03,16,-1.50
2009,01,23,03,17,-1.50
2009,01,23,03,18,-1.50
2009,01,23,03,19,-1.50
2009,01,23,03,20,-1.60
2009,01,23,03,21,-1.60
2009,01,23,03,22,-1.60
2009,01,23,03,23,-1.60
2009,01,23,03,24,-1.60
2009,01,23,03,25,-1.60
2009,01,23,03,26,-1.60
2009,01,23,03,27,-1.60
2009,01,23,03,28,-1.60
2009,01,23,03,29,-1.60
2009,01,23,03,30,-1.60
2009,01,23,03,31,-1.60
2009,01,23,03,32,-1.60
2009,01,23,03,33,-1.60
2009,01,23,03,34,-1.60
2009,01,23,03,35,-1.60
2009,01,23,03,36,-1.60
2009,01,23,03,37,-1.60
2009,01,23,03,38,-1.60
2009,01,23,03,39,-1.60
2009,01,23,03,40,-1.60
2009,01,23,03,41,-1.60
2009,01,23,03,42,-1.60
2009,01,23,03,43,-1.60
2009,01,23,03,44,-1.60
2009,01,23,03,45,-1.60
2009,01,23,03,46,-1.60
2009,01,23,03,47,-1.60
2009,01,23,03,48,-1.60
2009,01,23,03,49,-1.60
2009,01,23,03,50,-1.60
2009,01,23,03,51,-1.60
2009,01,23,03,52,-1.60
2009,01,23,03,53,-1.60
2009,01,23,03,54,-1.60
2009,01,23,03,55,-1.60
2009,01,23,03,56,-1.60
2009,01,23,03,57,-1.60
2009,01,23,03,58,-1.60
2009,01,23,03,59,-1.60
2009,01,23,04,00,-1.60
2009,01,23,04,01,-1.60
2009,01,23,04,02,-1.60
2009,01,23,04,03,-1.60
2009,01,23,04,04,-1.60
2009,01,23,04,05,-1.60
2009,01,23,04,06,-1.60
2009,01,23,04,07,-1.60
2009,01,23,04,08,-1.60
2009,01,23,04,09,-1.60
2009,01,23,08,41,-4.00
2009,01,23,08,42,-4.00
2009,01,23,08,43,-4.00
2009,01,23,08,44,-4.00
2009,01,23,08,45,-4.00
2009,01,23,08,46,-4.00
2009,01,23,08,47,-4.00
2009,01,23,08,48,-4.00
2009,01,23,08,49,-4.00
2009,01,23,08,50,-4.10
2009,01,23,08,51,-4.10
2009,01,23,08,52,-4.10
2009,01,23,08,53,-4.10
2009,01,23,08,54,-4.10
2009,01,23,08,55,-4.10
2009,01,23,08,56,-4.00
2009,01,23,08,57,-4.00
2009,01,23,08,58,-4.00
2009,01,23,08,59,-3.90
2009,01,23,09,00,-3.90
2009,01,23,09,01,-3.90
2009,01,23,09,02,-3.90
2009,01,23,09,03,-3.80
2009,01,23,09,04,-3.80
2009,01,23,09,05,-3.80
2009,01,23,09,06,-3.80
2009,01,23,09,07,-3.80
2009,01,23,09,08,-3.80
2009,01,23,09,09,-3.80
2009,01,23,09,10,-3.80
2009,01,23,09,11,-3.80
2009,01,23,09,12,-3.80
2009,01,23,09,13,-3.80
2009,01,23,09,14,-3.80
2009,01,23,09,15,-3.80
2009,01,23,09,16,-3.80
2009,01,23,09,17,-3.80
2009,01,23,09,18,-3.80
2009,01,23,09,19,-3.80
2009,01,23,09,20,-3.80
2009,01,23,09,21,-3.80
2009,01,23,09,22,-3.80
2009,01,23,09,23,-3.80
2009,01,23,09,24,-3.80
2009,01,23,09,25,-3.70
2009,01,23,09,26,-3.70
2009,01,23,09,27,-3.70
2009,01,23,09,28,-3.70
2009,01,23,09,29,-3.60
2009,01,23,09,30,-3.60
2009,01,23,09,31,-3.60
2009,01,23,09,32,-3.50
2009,01,23,09,33,-3.50
2009,01,23,09,34,-3.40
2009,01,23,09,35,-3.40
2009,01,23,09,36,-3.30
2009,01,23,09,37,-3.30
2009,01,23,09,38,-3.30
2009,01,23,09,39,-3.30
2009,01,23,09,40,-3.30
2009,01,23,09,41,-3.30
2009,01,23,09,42,-3.20
2009,01,23,09,43,-3.20
2009,01,23,09,44,-3.20
2009,01,23,09,45,-3.20
2009,01,23,09,46,-3.20
2009,01,23,09,47,-3.20
2009,01,23,09,48,-3.10
2009,01,23,09,49,-3.10
2009,01,23,09,50,-3.10
2009,01,23,09,51,-3.00
2009,01,23,09,52,-2.90
2009,01,23,09,53,-2.90
2009,01,23,09,54,-2.80
2009,01,23,09,55,-2.80
2009,01,23,09,56,-2.80
2009,01,23,09,57,-2.80
2009,01,23,09,58,-2.70
2009,01,23,09,59,-2.70
2009,01,23,10,00,-2.60
2009,01,23,10,01,-2.60
2009,01,23,10,02,-2.50
2009,01,23,10,03,-2.50
2009,01,23,10,04,-2.40
2009,01,23,10,05,-2.40
2009,01,23,10,06,-2.40
2009,01,23,10,07,-2.40
2009,01,23,10,08,-2.40
2009,01,23,10,09,-2.40
2009,01,23,10,10,-2.40
2009,01,23,10,11,-2.30
2009,01,23,10,12,-2.30
2009,01,23,10,13,-2.30
2009,01,23,10,14,-2.30
2009,01,23,10,15,-2.30
2009,01,23,10,16,-2.30
2009,01,23,10,17,-2.20
2009,01,23,10,18,-2.20
2009,01,23,10,19,-2.20
2009,01,23,10,20,-2.20
2009,01,23,10,21,-2.20
2009,01,23,10,22,-2.10
2009,01,23,10,23,-2.10
2009,01,23,10,24,-2.00
2009,01,23,10,25,-2.00
2009,01,23,10,26,-1.90
2009,01,23,10,27,-1.90
2009,01,23,10,28,-1.90
2009,01,23,10,29,-1.80
2009,01,23,10,30,-1.80
2009,01,23,10,31,-1.80
2009,01,23,10,32,-1.80
2009,01,23,10,33,-1.80
2009,01,23,10,34,-1.80
2009,01,23,10,35,-1.80
2009,01,23,10,36,-1.70
2009,01,23,10,37,-1.70
2009,01,23,10,38,-1.70
2009,01,23,10,39,-1.70
2009,01,23,10,40,-1.60
2009,01,23,10,41,-1.60
2009,01,23,10,42,-1.60
2009,01,23,10,43,-1.60
2009,01,23,10,44,-1.60
2009,01,23,10,45,-1.60
2009,01,23,10,46,-1.60
2009,01,23,10,47,-1.40
2009,01,23,10,48,-1.30
2009,01,23,10,49,-1.30
2009,01,23,10,50,-1.30
2009,01,23,10,51,-1.30
2009,01,23,10,52,-1.20
2009,01,23,10,53,-1.20
2009,01,23,10,54,-1.10
2009,01,23,10,55,-1.10
2009,01,23,10,56,-1.10
2009,01,23,10,57,-1.00
2009,01,23,10,58,-1.00
2009,01,23,10,59,-0.90
2009,01,23,11,00,-0.90
2009,01,23,11,01,-0.90
2009,01,23,11,02,-0.90
2009,01,23,11,03,-0.80
2009,01,23,11,04,-0.80
2009,01,23,11,05,-0.80
2009,01,23,11,06,-0.80
2009,01,23,11,07,-0.80
2009,01,23,11,08,-0.70
2009,01,23,11,09,-0.70
2009,01,23,11,10,-0.70
2009,01,23,11,11,-0.60
2009,01,23,11,12,-0.60
2009,01,23,11,13,-0.60
2009,01,23,11,14,-0.50
2009,01,23,11,15,-0.40
2009,01,23,11,16,-0.40
2009,01,23,11,17,-0.40
2009,01,23,11,18,-0.30
2009,01,23,11,19,-0.20
2009,01,23,11,20,-0.10
2009,01,23,11,21,-0.10
2009,01,23,11,22,-0.10
2009,01,23,11,23,-0.10
2009,01,23,11,24,-0.10
2009,01,23,11,25,-0.10
2009,01,23,11,26,-0.10
2009,01,23,11,27,-0.10
2009,01,23,11,28,0.30
2009,01,23,11,29,0.40
2009,01,23,11,30,0.40
2009,01,23,11,31,0.50
2009,01,23,11,32,0.50
2009,01,23,11,33,0.50
2009,01,23,11,34,0.60
2009,01,23,11,35,0.60
2009,01,23,11,36,0.70
2009,01,23,11,37,0.80
2009,01,23,11,38,0.90
2009,01,23,11,39,1.00
2009,01,23,11,40,1.20
2009,01,23,11,41,1.20
2009,01,23,11,42,1.30
2009,01,23,11,43,1.30
2009,01,23,11,44,1.30
2009,01,23,11,45,1.20
2009,01,23,11,46,1.20
2009,01,23,11,47,1.20
2009,01,23,11,48,1.20
2009,01,23,11,49,1.20
2009,01,23,11,50,1.20
2009,01,23,11,51,1.10
2009,01,23,11,52,1.10
2009,01,23,11,53,1.10
2009,01,23,11,54,1.20
2009,01,23,11,55,1.20
2009,01,23,11,56,1.20
2009,01,23,11,57,1.20
2009,01,23,11,58,1.20
2009,01,23,11,59,1.30
2009,01,23,12,00,1.30
2009,01,23,12,01,1.30
2009,01,23,12,02,1.30
2009,01,23,12,03,1.30
2009,01,23,12,04,1.30
2009,01,23,12,05,1.30
2009,01,23,12,06,1.30
2009,01,23,12,07,1.40
2009,01,23,12,08,1.50
2009,01,23,12,09,1.50
2009,01,23,12,10,1.60
2009,01,23,12,11,1.60
2009,01,23,12,12,1.50
2009,01,23,12,13,1.60
2009,01,23,12,14,1.60
2009,01,23,12,15,1.60
2009,01,23,12,16,1.70
2009,01,23,12,17,1.80
2009,01,23,12,18,1.80
2009,01,23,12,19,1.90
2009,01,23,12,20,2.00
2009,01,23,12,21,2.10
2009,01,23,12,22,2.10
2009,01,23,12,23,2.20
2009,01,23,12,24,2.20
2009,01,23,12,25,2.20
2009,01,23,12,26,2.20
2009,01,23,12,27,2.20
2009,01,23,12,28,2.20
2009,01,23,12,29,2.30
2009,01,23,12,30,2.30
2009,01,23,12,31,2.30
2009,01,23,12,32,2.30
2009,01,23,12,33,2.40
2009,01,23,12,34,2.40
2009,01,23,12,35,2.50
2009,01,23,12,36,2.60
2009,01,23,12,37,2.70
2009,01,23,12,38,2.70
2009,01,23,12,39,2.80
2009,01,23,12,40,2.80
2009,01,23,12,41,2.80
2009,01,23,12,42,2.80
2009,01,23,12,43,2.90
2009,01,23,12,44,2.90
2009,01,23,12,45,2.90
2009,01,23,12,46,3.00
2009,01,23,12,47,3.00
2009,01,23,12,48,3.00
2009,01,23,12,49,3.00
2009,01,23,12,50,3.00
2009,01,23,12,51,3.00
2009,01,23,12,52,3.00
2009,01,23,12,53,3.00
2009,01,23,12,54,3.00
2009,01,23,12,55,3.10
2009,01,23,12,56,3.00
2009,01,23,12,57,3.00
2009,01,23,12,58,3.00
2009,01,23,12,59,3.00
2009,01,23,13,00,3.00
2009,01,23,13,01,3.10
2009,01,23,13,02,3.20
2009,01,23,13,03,3.30
2009,01,23,13,04,3.30
2009,01,23,13,05,3.40
2009,01,23,13,06,3.40
2009,01,23,13,07,3.40
2009,01,23,13,08,3.40
2009,01,23,13,09,3.40
2009,01,23,13,10,3.30
2009,01,23,13,11,3.30
2009,01,23,13,12,3.30
2009,01,23,13,13,3.30
2009,01,23,13,14,3.20
2009,01,23,13,15,3.20
2009,01,23,13,16,3.20
2009,01,23,13,17,3.20
2009,01,23,13,18,3.30
2009,01,23,13,19,3.30
2009,01,23,13,20,3.30
2009,01,23,13,21,3.30
2009,01,23,13,22,3.40
2009,01,23,13,23,3.50
2009,01,23,13,24,3.50
2009,01,23,13,25,3.60
2009,01,23,13,26,3.60
2009,01,23,13,27,3.70
2009,01,23,13,28,3.70
2009,01,23,13,29,3.80
2009,01,23,13,30,3.80
2009,01,23,13,31,3.80
2009,01,23,13,32,3.80
2009,01,23,13,33,3.80
2009,01,23,13,34,3.80
2009,01,23,13,35,3.80
2009,01,23,13,36,3.80
2009,01,23,13,37,3.80
2009,01,23,13,38,3.80
2009,01,23,13,39,3.80
2009,01,23,13,40,3.80
2009,01,23,13,41,3.80
2009,01,23,13,42,3.90
2009,01,23,13,43,3.90
2009,01,23,13,44,3.90
2009,01,23,13,45,4.00
2009,01,23,13,46,4.00
2009,01,23,13,47,4.10
2009,01,23,13,48,4.10
2009,01,23,13,49,4.10
2009,01,23,13,50,4.20
2009,01,23,13,51,4.20
2009,01,23,13,52,4.30
2009,01,23,13,53,4.30
2009,01,23,13,54,4.30
2009,01,23,13,55,4.40
2009,01,23,13,56,4.40
2009,01,23,13,57,4.40
2009,01,23,13,58,4.40
2009,01,23,13,59,4.50
2009,01,23,14,00,4.50
2009,01,23,14,01,4.60
2009,01,23,14,02,4.70
2009,01,23,14,03,4.70
2009,01,23,14,04,4.80
2009,01,23,14,05,4.80
2009,01,23,14,06,4.80
2009,01,23,14,07,4.90
2009,01,23,14,08,4.90
2009,01,23,14,09,4.90
2009,01,23,14,10,4.90
2009,01,23,14,11,4.90
2009,01,23,14,12,4.80
2009,01,23,14,13,4.80
2009,01,23,14,14,4.80
2009,01,23,14,15,4.80
2009,01,23,14,16,4.80
2009,01,23,14,17,4.80
2009,01,23,14,18,4.80
2009,01,23,14,19,4.80
2009,01,23,14,20,4.80
2009,01,23,14,21,4.80
2009,01,23,14,22,4.80
2009,01,23,14,23,4.80
2009,01,23,14,24,4.90
2009,01,23,14,25,4.90
2009,01,23,14,26,5.00
2009,01,23,14,27,5.00
2009,01,23,14,28,5.10
2009,01,23,14,29,5.10
2009,01,23,14,30,5.20
2009,01,23,14,31,5.20
2009,01,23,14,32,5.20
2009,01,23,14,33,5.20
2009,01,23,14,34,5.20
2009,01,23,14,35,5.20
2009,01,23,14,36,5.20
2009,01,23,14,37,5.20
2009,01,23,14,38,5.20
2009,01,23,14,39,5.30
2009,01,23,14,40,5.30
2009,01,23,14,41,5.30
2009,01,23,14,42,5.40
2009,01,23,14,43,5.50
2009,01,23,14,44,5.60
2009,01,23,14,45,5.70
2009,01,23,14,46,5.70
2009,01,23,14,47,5.80
2009,01,23,14,48,5.80
2009,01,23,14,49,5.80
2009,01,23,14,50,5.80
2009,01,23,14,51,5.70
2009,01,23,14,52,5.70
2009,01,23,14,53,5.60
2009,01,23,14,54,5.70
2009,01,23,14,55,5.70
2009,01,23,14,56,5.70
2009,01,23,14,57,5.80
2009,01,23,14,58,5.80
2009,01,23,14,59,5.80
2009,01,23,15,00,5.90
2009,01,23,15,01,5.90
2009,01,23,15,02,5.90
2009,01,23,15,03,5.90
2009,01,23,15,04,5.90
2009,01,23,15,05,5.80
2009,01,23,15,06,5.70
2009,01,23,15,07,5.70
2009,01,23,15,08,5.60
2009,01,23,15,09,5.60
2009,01,23,15,10,5.60
2009,01,23,15,11,5.60
2009,01,23,15,12,5.60
2009,01,23,15,13,5.70
2009,01,23,15,14,5.70
2009,01,23,15,15,5.80
2009,01,23,15,16,5.80
2009,01,23,15,17,5.90
2009,01,23,15,18,5.90
2009,01,23,15,19,5.90
2009,01,23,15,20,5.80
2009,01,23,15,21,5.80
2009,01,23,15,22,5.80
2009,01,23,15,23,5.80
2009,01,23,15,24,5.90
2009,01,23,15,25,5.90
2009,01,23,15,26,5.90
2009,01,23,15,27,6.00
2009,01,23,15,28,6.00
2009,01,23,15,29,6.10
2009,01,23,15,30,6.10
2009,01,23,15,31,6.10
2009,01,23,15,32,6.10
2009,01,23,15,33,6.20
2009,01,23,15,34,6.20
2009,01,23,15,35,6.20
2009,01,23,15,36,6.20
2009,01,23,15,37,6.20
2009,01,23,15,38,6.20
2009,01,23,15,39,6.30
2009,01,23,15,40,6.40
2009,01,23,15,41,6.40
2009,01,23,15,42,6.50
2009,01,23,15,43,6.60
2009,01,23,15,44,6.60
2009,01,23,15,45,6.60
2009,01,23,15,46,6.50
2009,01,23,15,47,6.50
2009,01,23,15,48,6.50
2009,01,23,15,49,6.40
2009,01,23,15,50,6.40
2009,01,23,15,51,6.30
2009,01,23,15,52,6.30
2009,01,23,15,53,6.30
2009,01,23,15,54,6.30
2009,01,23,15,55,6.30
2009,01,23,15,56,6.20
2009,01,23,15,57,6.20
2009,01,23,15,58,6.20
2009,01,23,15,59,6.20
2009,01,23,16,00,6.20
2009,01,23,16,01,6.20
2009,01,23,16,02,6.20
2009,01,23,16,03,6.20
2009,01,23,16,04,6.20
2009,01,23,16,05,6.10
2009,01,23,16,06,6.10
2009,01,23,16,07,6.10
2009,01,23,16,08,6.10
2009,01,23,16,09,6.00
2009,01,23,16,10,5.90
2009,01,23,16,11,5.90
2009,01,23,16,12,5.80
2009,01,23,16,13,5.80
2009,01,23,16,14,5.80
2009,01,23,16,15,5.70
2009,01,23,16,16,5.50
2009,01,23,16,17,5.50
2009,01,23,16,18,5.40
2009,01,23,16,19,5.40
2009,01,23,16,20,5.30
2009,01,23,16,21,5.30
2009,01,23,16,22,5.30
2009,01,23,16,23,5.30
2009,01,23,16,24,5.30
2009,01,23,16,25,5.20
2009,01,23,16,26,5.10
2009,01,23,16,27,5.10
2009,01,23,16,28,5.00
2009,01,23,16,29,5.00
2009,01,23,16,30,4.90
2009,01,23,16,31,4.90
2009,01,23,16,32,4.80
2009,01,23,16,33,4.70
2009,01,23,16,34,4.70
2009,01,23,16,35,4.60
2009,01,23,16,36,4.60
2009,01,23,16,37,4.50
2009,01,23,16,38,4.40
2009,01,23,16,39,4.40
2009,01,23,16,40,4.30
2009,01,23,16,41,4.20
2009,01,23,16,42,4.20
2009,01,23,16,43,4.10
2009,01,23,16,44,4.10
2009,01,23,16,45,4.00
2009,01,23,16,46,3.90
2009,01,23,16,47,3.90
2009,01,23,16,48,3.80
2009,01,23,16,49,3.80
2009,01,23,16,50,3.70
2009,01,23,16,51,3.70
2009,01,23,16,52,3.60
2009,01,23,16,53,3.60
2009,01,23,16,54,3.50
2009,01,23,16,55,3.50
2009,01,23,16,56,3.40
2009,01,23,16,57,3.30
2009,01,23,16,58,3.30
2009,01,23,16,59,3.20
2009,01,23,17,00,3.20
2009,01,23,17,01,3.10
2009,01,23,17,02,3.10
2009,01,23,17,03,3.00
2009,01,23,17,04,3.00
2009,01,23,17,05,2.90
2009,01,23,17,06,2.90
2009,01,23,17,07,2.80
2009,01,23,17,08,2.80
2009,01,23,17,09,2.70
2009,01,23,17,10,2.70
2009,01,23,17,11,2.60
2009,01,23,17,12,2.60
2009,01,23,17,13,2.50
2009,01,23,17,14,2.40
2009,01,23,17,15,2.40
2009,01,23,17,16,2.30
2009,01,23,17,17,2.30
2009,01,23,17,18,2.20
2009,01,23,17,19,2.20
2009,01,23,17,20,2.10
2009,01,23,17,21,2.10
2009,01,23,17,22,2.00
2009,01,23,17,23,1.90
2009,01,23,17,24,1.90
2009,01,23,17,25,1.80
2009,01,23,17,26,1.80
2009,01,23,17,27,1.70
2009,01,23,17,28,1.70
2009,01,23,17,29,1.60
2009,01,23,17,30,1.60
2009,01,23,17,31,1.50
2009,01,23,17,32,1.50
2009,01,23,17,33,1.40
2009,01,23,17,34,1.40
2009,01,23,17,35,1.30
2009,01,23,17,36,1.30
2009,01,23,17,37,1.30
2009,01,23,17,38,1.30
2009,01,23,17,39,1.30
2009,01,23,17,40,1.30
2009,01,23,17,41,1.20
2009,01,23,17,42,1.20
2009,01,23,17,43,1.20
2009,01,23,17,44,1.10
2009,01,23,17,45,1.10
2009,01,23,17,46,1.00
2009,01,23,17,47,1.00
2009,01,23,17,48,0.90
2009,01,23,17,49,0.90
2009,01,23,17,50,0.80
2009,01,23,17,51,0.80
2009,01,23,17,52,0.70
2009,01,23,17,53,0.70
2009,01,23,17,54,0.60
2009,01,23,17,55,0.60
2009,01,23,17,56,0.60
2009,01,23,17,57,0.50
2009,01,23,17,58,0.40
2009,01,23,17,59,0.40
2009,01,23,18,00,0.40
2009,01,23,18,01,0.40
2009,01,23,18,02,0.40
2009,01,23,18,03,0.40
2009,01,23,18,04,0.40
2009,01,23,18,05,0.30
2009,01,23,18,06,0.20
2009,01,23,18,07,0.20
2009,01,23,18,08,0.20
2009,01,23,18,09,0.10
2009,01,23,18,10,0.10
2009,01,23,18,11,0.00
2009,01,23,18,12,0.00
2009,01,23,18,13,0.00
2009,01,23,18,14,-0.10
2009,01,23,18,15,-0.20
2009,01,23,18,16,-0.20
2009,01,23,18,17,-0.30
2009,01,23,18,18,-0.30
2009,01,23,18,19,-0.30
2009,01,23,18,20,-0.40
2009,01,23,18,21,-0.40
2009,01,23,18,22,-0.40
2009,01,23,18,23,-0.40
2009,01,23,18,24,-0.50
2009,01,23,18,25,-0.50
2009,01,23,18,26,-0.60
2009,01,23,18,27,-0.60
2009,01,23,18,28,-0.60
2009,01,23,18,29,-0.60
2009,01,23,18,30,-0.60
2009,01,23,18,31,-0.70
2009,01,23,18,32,-0.70
2009,01,23,18,33,-0.70
2009,01,23,18,34,-0.70
2009,01,23,18,35,-0.80
2009,01,23,18,36,-0.80
2009,01,23,18,37,-0.80
2009,01,23,18,38,-0.80
2009,01,23,18,39,-0.80
2009,01,23,18,40,-0.80
2009,01,23,18,41,-0.80
2009,01,23,18,42,-0.90
2009,01,23,18,43,-0.90
2009,01,23,18,44,-0.90
2009,01,23,18,45,-0.90
2009,01,23,18,46,-0.90
2009,01,23,18,47,-1.00
2009,01,23,18,48,-1.00
2009,01,23,18,49,-1.00
2009,01,23,18,50,-1.00
2009,01,23,18,51,-1.10
2009,01,23,18,52,-1.10
2009,01,23,18,53,-1.10
2009,01,23,18,54,-1.10
2009,01,23,18,55,-1.10
2009,01,23,18,56,-1.10
2009,01,23,18,57,-1.10
2009,01,23,18,58,-1.20
2009,01,23,18,59,-1.20
2009,01,23,19,00,-1.20
2009,01,23,19,01,-1.20
2009,01,23,19,02,-1.20
2009,01,23,19,03,-1.20
2009,01,23,19,04,-1.30
2009,01,23,19,05,-1.30
2009,01,23,19,06,-1.30
2009,01,23,19,07,-1.30
2009,01,23,19,08,-1.30
2009,01,23,19,09,-1.30
2009,01,23,19,10,-1.30
2009,01,23,19,11,-1.40
2009,01,23,19,12,-1.40
2009,01,23,19,13,-1.40
2009,01,23,19,14,-1.40
2009,01,23,19,15,-1.40
2009,01,23,19,16,-1.40
2009,01,23,19,17,-1.40
2009,01,23,19,18,-1.40
2009,01,23,19,19,-1.40
2009,01,23,19,20,-1.40
2009,01,23,19,21,-1.50
2009,01,23,19,22,-1.50
2009,01,23,19,23,-1.50
2009,01,23,19,24,-1.50
2009,01,23,19,25,-1.50
2009,01,23,19,26,-1.50
2009,01,23,19,27,-1.50
2009,01,23,19,28,-1.50
2009,01,23,19,29,-1.50
2009,01,23,19,30,-1.50
2009,01,23,19,31,-1.50
2009,01,23,19,32,-1.50
2009,01,23,19,33,-1.50
2009,01,23,19,34,-1.60
2009,01,23,19,35,-1.60
2009,01,23,19,36,-1.60
2009,01,23,19,37,-1.60
2009,01,23,19,38,-1.60
2009,01,23,19,39,-1.60
2009,01,23,19,40,-1.60
2009,01,23,19,41,-1.70
2009,01,23,19,42,-1.70
2009,01,23,19,43,-1.70
2009,01,23,19,44,-1.70
2009,01,23,19,45,-1.70
2009,01,23,19,46,-1.80
2009,01,23,19,47,-1.80
2009,01,23,19,48,-1.80
2009,01,23,19,49,-1.80
2009,01,23,19,50,-1.80
2009,01,23,19,51,-1.80
2009,01,23,19,52,-1.80
2009,01,23,19,53,-1.80
2009,01,23,19,54,-1.80
2009,01,23,19,55,-1.80
2009,01,23,19,56,-1.80
2009,01,23,19,57,-1.80
2009,01,23,19,58,-1.80
2009,01,23,19,59,-1.80
2009,01,23,20,00,-1.80
2009,01,23,20,01,-1.80
2009,01,23,20,02,-1.90
2009,01,23,20,03,-1.90
2009,01,23,20,04,-1.90
2009,01,23,20,05,-1.90
2009,01,23,20,06,-1.90
2009,01,23,20,07,-1.90
2009,01,23,20,08,-1.90
2009,01,23,20,09,-1.90
2009,01,23,20,10,-1.90
2009,01,23,20,11,-1.90
2009,01,23,20,12,-1.90
2009,01,23,20,13,-2.00
2009,01,23,20,14,-2.00
2009,01,23,20,15,-2.00
2009,01,23,20,16,-2.00
2009,01,23,20,17,-2.00
2009,01,23,20,18,-2.00
2009,01,23,20,19,-2.00
2009,01,23,20,20,-2.00
2009,01,23,20,21,-2.00
2009,01,23,20,22,-2.00
2009,01,23,20,23,-2.10
2009,01,23,20,24,-2.00
2009,01,23,20,25,-2.10
2009,01,23,20,26,-2.00
2009,01,23,20,27,-2.00
2009,01,23,20,28,-2.00
2009,01,23,20,29,-2.00
2009,01,23,20,30,-2.00
2009,01,23,20,31,-2.00
2009,01,23,20,32,-2.00
2009,01,23,20,33,-2.10
2009,01,23,20,34,-2.10
2009,01,23,20,35,-2.10
2009,01,23,20,36,-2.10
2009,01,23,20,37,-2.10
2009,01,23,20,38,-2.10
2009,01,23,20,39,-2.10
2009,01,23,20,40,-2.10
2009,01,23,20,41,-2.10
2009,01,23,20,42,-2.10
2009,01,23,20,43,-2.10
2009,01,23,20,44,-2.20
2009,01,23,20,45,-2.10
2009,01,23,20,46,-2.10
2009,01,23,20,47,-2.10
2009,01,23,20,48,-2.20
2009,01,23,20,49,-2.20
2009,01,23,20,50,-2.20
2009,01,23,20,51,-2.20
2009,01,23,20,52,-2.20
2009,01,23,20,53,-2.20
2009,01,23,20,54,-2.20
2009,01,23,20,55,-2.20
2009,01,23,20,56,-2.20
2009,01,23,20,57,-2.20
2009,01,23,20,58,-2.20
2009,01,23,20,59,-2.20
2009,01,23,21,00,-2.30
2009,01,23,21,01,-2.30
2009,01,23,21,02,-2.30
2009,01,23,21,03,-2.30
2009,01,23,21,04,-2.30
2009,01,23,21,05,-2.30
2009,01,23,21,06,-2.40
2009,01,23,21,07,-2.40
2009,01,23,21,08,-2.40
2009,01,23,21,09,-2.40
2009,01,23,21,10,-2.40
2009,01,23,21,11,-2.40
2009,01,23,21,12,-2.40
2009,01,23,21,13,-2.40
2009,01,23,21,14,-2.40
2009,01,23,21,15,-2.40
2009,01,23,21,16,-2.30
2009,01,23,21,17,-2.30
2009,01,23,21,18,-2.30
2009,01,23,21,19,-2.30
2009,01,23,21,20,-2.30
2009,01,23,21,21,-2.30
2009,01,23,21,22,-2.30
2009,01,23,21,23,-2.30
2009,01,23,21,24,-2.30
2009,01,23,21,25,-2.30
2009,01,23,21,26,-2.30
2009,01,23,21,27,-2.20
2009,01,23,21,28,-2.30
2009,01,23,21,29,-2.20
2009,01,23,21,30,-2.30
2009,01,23,21,31,-2.20
2009,01,23,21,32,-2.30
2009,01,23,21,33,-2.30
2009,01,23,21,34,-2.30
2009,01,23,21,35,-2.30
2009,01,23,21,36,-2.30
2009,01,23,21,37,-2.30
2009,01,23,21,38,-2.30
2009,01,23,21,39,-2.30
2009,01,23,21,40,-2.30
2009,01,23,21,41,-2.30
2009,01,23,21,42,-2.30
2009,01,23,21,43,-2.30
2009,01,23,21,44,-2.40
2009,01,23,21,45,-2.40
2009,01,23,21,46,-2.40
2009,01,23,21,47,-2.40
2009,01,23,21,48,-2.40
2009,01,23,21,49,-2.50
2009,01,23,21,50,-2.40
2009,01,23,21,51,-2.40
2009,01,23,21,52,-2.40
2009,01,23,21,53,-2.40
2009,01,23,21,54,-2.40
2009,01,23,21,55,-2.40
2009,01,23,21,56,-2.40
2009,01,23,21,57,-2.50
2009,01,23,21,58,-2.50
2009,01,23,21,59,-2.50
2009,01,23,22,00,-2.60
2009,01,23,22,01,-2.60
2009,01,23,22,02,-2.60
2009,01,23,22,03,-2.60
2009,01,23,22,04,-2.60
2009,01,23,22,05,-2.60
2009,01,23,22,06,-2.60
2009,01,23,22,07,-2.50
2009,01,23,22,08,-2.50